Dewpoint
21 22 24 37 41 33 32 32 47 53 59 58 55 55 59 62 60 54 54 55 56 57 60 61 61 62 64 66 68 70 71 73 71 71 67 67 66 68 68 69 72 73 71 72
23 21 24 37 41 29 37 35 48 54 58 56 56 54 57 61 59 55 55 55 56 56 58 62 62 63 64 67 69 70 71 73 75 72 72 69 68 67 68 69 72 72 71 73
18 17 30 38 35 29 43 41 46 47 53 53 53 55 57 60 60 56 55 56 56 56 57 61 62 63 64 66 69 70 72 73 74 72 75 70 74 70 68 69 69 71 72 71
19 29 31 37 36 31 32 37 46 50 48 47 52 45 54 59 58 57 54 54 54 55 56 58 61 62 63 65 68 70 72 73 72 75 72 74 73 71 67 67 68 69 72 71
21 26 33 35 37 31 30 37 44 46 43 46 47 41 50 58 57 57 56 54 52 53 54 56 59 62 63 65 66 68 71 73 72 73 74 70 70 67 67 68 73 73 74 73
29 30 34 32 33 30 30 37 40 41 40 34 39 40 48 54 55 56 58 57 54 53 53 56 58 61 63 64 65 67 71 73 73 73 73 72 71 70 71 72 73 69 69 69
29 30 30 31 32 32 35 37 33 32 32 31 37 36 41 48 52 55 57 57 57 53 52 54 57 61 63 64 65 66 70 72 73 72 72 72 71 71 71 71 68 69 71 69
23 23 28 28 26 29 32 35 31 31 30 30 42 36 41 48 50 54 57 58 57 56 54 54 58 62 66 64 67 67 70 72 72 72 72 73 74 69 69 70 73 68 70 68
22 24 25 25 25 23 30 31 33 30 30 29 35 41 50 53 53 54 56 58 59 57 55 57 58 60 64 66 67 68 70 72 72 71 73 73 73 73 74 72 72 69 72 69
25 23 22 22 24 24 23 33 31 30 31 30 34 36 42 52 52 54 54 56 59 59 58 58 59 63 65 67 68 69 70 72 71 70 72 70 72 73 74 75 74 74 73 73
25 24 22 23 22 20 23 23 26 25 26 27 27 33 51 55 55 54 55 56 58 59 58 61 61 65 67 68 70 69 70 70 70 69 71 70 70 71 73 72 74 74 75 75
28 23 26 21 20 22 20 21 23 24 31 29 33 44 55 56 57 56 57 58 58 61 58 61 65 66 67 69 69 70 70 69 70 70 71 72 72 71 70 71 72 73 74 74
31 25 24 25 23 26 24 21 19 22 24 31 26 34 57 58 58 60 61 62 62 62 64 66 66 66 67 68 70 70 69 71 69 71 70 72 70 71 71 72 71 72 73 73
38 28 29 22 24 22 25 24 25 22 24 24 28 41 54 57 58 60 62 63 63 63 65 66 67 67 69 69 68 69 71 71 70 71 71 72 73 72 71 72 73 73 74 73
33 32 30 27 28 26 24 24 24 25 24 25 26 31 47 55 57 59 61 63 63 63 64 65 65 66 67 68 68 68 69 68 69 69 69 71 72 72 73 73 73 73 73 72
34 32 33 28 26 29 29 30 26 27 27 28 29 43 53 56 59 60 61 62 62 62 64 65 66 67 67 68 67 67 68 68 69 69 69 70 71 72 72 72 72 72 73 73
34 34 33 29 28 26 32 39 37 38 41 41 29 49 55 57 58 60 60 60 60 61 62 61 60 61 63 65 67 67 66 69 69 68 68 69 70 69 71 71 71 70 71 72
35 36 34 31 31 26 35 40 39 42 46 45 47 51 54 56 59 59 59 59 59 59 60 59 59 59 59 59 61 63 63 65 66 67 67 68 69 66 66 70 70 71 71 71
37 35 31 29 30 35 31 38 37 37 42 47 50 54 56 57 57 56 56 58 58 59 58 57 56 56 57 57 58 59 60 60 62 62 63 65 65 63 64 65 65 67 69 69
31 36 30 29 29 30 38 35 35 37 37 50 53 53 54 56 53 54 56 57 57 56 55 55 55 54 53 53 54 56 56 58 59 60 62 63 63 63 63 63 65 68 68 67
32 32 28 27 28 34 37 35 36 35 40 44 52 53 53 54 54 56 56 56 56 54 54 54 53 52 51 52 52 54 55 55 57 57 58 59 61 61 62 63 65 65 64 64
33 31 29 30 28 29 40 36 38 44 44 43 51 52 53 55 56 56 56 57 55 53 52 52 51 51 51 53 54 55 55 55 57 58 57 58 58 57 58 60 60 62 62 61
38 37 38 36 37 43 41 42 42 44 46 46 50 52 54 54 54 55 55 56 55 55 54 53 52 52 52 53 53 53 54 54 54 55 55 56 57 57 58 58 58 56 58 55
38 42 40 39 41 41 41 42 42 44 47 49 50 53 54 54 54 54 54 53 52 51 50 50 50 49 50 51 51 52 52 53 53 53 53 53 53 54 54 50 51 52 53 52
37 40 36 37 41 42 41 42 44 45 46 49 51 52 53 53 54 54 53 52 51 51 49 49 49 49 49 49 49 49 50 51 49 48 48 48 47 49 49 47 46 45 43 42
36 35 34 33 42 41 45 44 43 42 44 47 49 51 52 54 54 54 53 51 50 50 49 49 49 49 48 48 49 49 48 49 47 46 43 41 40 40 42 41 41 41 41 40
Lifted_Index
7 6 4 2 1 2 2 1 -2 -3 -3 -2 -2 -1 -2 -1 -1 0 0 -0 -0 -0 -1 -1 -1 -1 -2 -2 -3 -3 -4 -4 -4 -4 -4 -4 -4 -4 -4 -4 -5 -5 -5 -5
6 6 4 2 1 1 1 -0 -2 -3 -3 -3 -2 -2 -2 -1 -0 -0 -0 -0 -0 -0 -1 -1 -1 -2 -2 -2 -3 -3 -4 -4 -4 -4 -4 -4 -4 -4 -4 -4 -5 -5 -5 -5
6 5 4 3 1 1 -0 -1 -2 -3 -3 -3 -2 -2 -2 -1 -1 -1 -0 -0 -0 -0 -1 -1 -2 -2 -2 -2 -3 -3 -4 -4 -4 -4 -4 -4 -4 -4 -4 -4 -4 -5 -5 -5
5 5 4 3 2 1 0 -1 -2 -3 -2 -2 -2 -1 -1 -1 -1 -1 -1 -0 -0 -0 -1 -1 -2 -2 -2 -2 -3 -3 -4 -4 -4 -4 -4 -4 -4 -4 -4 -4 -4 -4 -5 -5
5 4 3 2 2 2 2 0 -1 -2 -2 -1 -1 -1 -1 -2 -2 -2 -1 -0 -0 -0 -0 -1 -1 -2 -2 -2 -2 -3 -3 -4 -5 -4 -4 -4 -3 -3 -4 -4 -4 -4 -5 -5
3 3 3 2 3 3 2 1 -1 -1 -1 -0 -0 -0 -1 -2 -3 -3 -2 -1 -1 -0 0 -0 -1 -2 -2 -2 -2 -3 -3 -4 -4 -4 -4 -4 -3 -3 -4 -4 -4 -4 -4 -4
3 3 3 3 3 3 2 0 -0 -0 -0 -1 -0 -0 -1 -2 -3 -3 -3 -2 -2 -0 0 -0 -1 -2 -2 -2 -2 -3 -3 -3 -4 -4 -4 -4 -4 -3 -3 -4 -4 -4 -4 -4
2 2 3 3 3 3 2 0 -0 -1 -1 -1 -1 -1 -1 -2 -3 -3 -3 -3 -2 -1 -0 -0 -1 -2 -2 -2 -3 -3 -3 -3 -4 -4 -4 -4 -4 -4 -3 -4 -4 -4 -4 -4
2 2 2 3 4 3 2 1 -0 -1 -1 -2 -2 -2 -2 -3 -3 -3 -3 -2 -2 -2 -1 -1 -1 -2 -3 -3 -3 -3 -3 -4 -4 -4 -4 -4 -4 -4 -4 -4 -4 -4 -4 -4
1 1 2 3 3 4 3 1 0 -0 -1 -1 -2 -2 -3 -3 -3 -3 -2 -2 -2 -2 -2 -2 -2 -3 -3 -3 -3 -3 -4 -4 -4 -4 -4 -4 -4 -4 -4 -5 -5 -5 -5 -5
1 1 1 2 3 3 3 2 1 0 -1 -1 -1 -2 -4 -4 -4 -4 -3 -3 -3 -3 -3 -3 -3 -4 -4 -4 -3 -3 -4 -4 -4 -4 -4 -4 -4 -4 -4 -5 -5 -5 -5 -5
0 0 0 1 2 3 3 3 2 0 -0 -1 -1 -3 -4 -5 -5 -4 -4 -4 -4 -3 -3 -3 -4 -4 -4 -4 -3 -3 -3 -3 -3 -3 -4 -4 -4 -4 -4 -4 -5 -5 -5 -6
-0 -0 -1 -0 1 2 2 2 1 0 -0 -1 -1 -3 -5 -5 -5 -5 -5 -4 -4 -4 -4 -4 -3 -3 -3 -3 -3 -3 -3 -3 -3 -4 -4 -4 -4 -4 -4 -4 -4 -5 -5 -5
-1 -1 -1 -1 -0 1 1 1 1 0 -0 -0 -1 -3 -5 -5 -5 -5 -5 -4 -4 -4 -4 -4 -3 -3 -3 -3 -2 -2 -2 -2 -3 -3 -3 -3 -4 -4 -4 -4 -4 -4 -5 -5
-1 -1 -1 -1 -0 -0 -0 0 1 0 -0 -0 -1 -3 -5 -5 -5 -5 -5 -5 -4 -4 -4 -4 -3 -3 -3 -2 -2 -1 -1 -1 -1 -2 -2 -3 -3 -4 -4 -4 -4 -4 -4 -4
-1 -1 -1 -1 -1 -1 -1 -1 -1 -1 -1 -1 -2 -4 -5 -5 -5 -5 -4 -4 -4 -4 -4 -3 -4 -4 -3 -3 -2 -1 -1 -1 -1 -1 -1 -2 -2 -3 -3 -4 -4 -4 -4 -4
-0 -1 -1 -1 -1 -1 -2 -2 -2 -2 -3 -3 -3 -5 -6 -5 -5 -4 -4 -4 -4 -3 -3 -3 -4 -4 -3 -3 -2 -1 -1 -1 -1 -1 -1 -1 -1 -1 -2 -2 -3 -3 -4 -4
-0 -0 -1 -1 -1 -1 -1 -2 -2 -3 -4 -4 -5 -6 -6 -5 -4 -4 -4 -3 -3 -3 -3 -3 -3 -3 -3 -3 -2 -2 -1 -1 -1 -1 -1 -1 -0 0 -0 -1 -2 -2 -3 -3
-0 -0 -0 -1 -1 -1 -1 -1 -1 -2 -3 -4 -5 -6 -5 -4 -4 -3 -3 -3 -3 -3 -3 -3 -3 -3 -2 -2 -2 -1 -1 -1 -1 -1 -1 -0 0 1 1 0 -0 -1 -2 -2
-0 -0 -0 -0 -1 -1 -0 0 0 -1 -2 -4 -5 -5 -4 -4 -4 -3 -3 -2 -2 -2 -2 -2 -2 -2 -2 -2 -1 -1 -1 -1 -1 -1 -1 -0 0 1 1 1 1 0 -0 -1
-1 -1 -0 -0 -1 -0 0 1 0 -0 -1 -2 -4 -4 -4 -4 -4 -3 -2 -2 -2 -2 -2 -1 -1 -1 -1 -0 0 1 1 0 0 -0 -0 -0 0 1 1 2 2 1 1 0
-1 -1 -1 -1 -0 0 1 1 0 0 -0 -1 -3 -4 -4 -3 -3 -2 -2 -1 -1 -1 -1 0 1 1 2 3 3 3 3 3 3 2 2 1 2 2 3 3 3 3 2 2
-0 -1 -1 -1 -0 0 1 1 1 0 -0 -1 -2 -3 -3 -2 -2 -1 -1 -1 -0 0 1 2 3 4 5 5 6 6 7 7 6 6 5 5 4 5 5 5 5 4 4 4
0 -0 -1 -1 -0 0 1 1 1 1 -0 -1 -2 -3 -3 -2 -1 -1 -1 -0 1 2 3 4 5 6 6 7 8 8 8 8 8 8 8 8 7 7 7 8 7 7 7 6
1 1 0 0 0 0 1 1 1 1 0 -1 -2 -2 -2 -2 -1 -1 -1 0 1 2 4 5 6 6 7 8 9 9 9 9 9 9 9 9 9 9 10 10 10 10 9 9
1 1 1 1 0 0 0 1 1 1 0 -0 -1 -2 -2 -2 -1 -1 -0 0 1 3 4 5 6 7 8 8 9 9 9 9 10 10 10 11 11 11 11 12 12 11 11 10